When you browse on this site, cookies collect data to enhance your experience and personalize the content and advertising you see.
Visit our Privacy Policy to learn more. By continuing to use the site, you agree to this use of cookies and data.
EN

Hourly Weather Sentyanіvka (Frunze)

Today, 23 September, Wednesday

Time Temperature Precipitation Wind Pressure Humidity
00:00 +13°C° 0 mm 0 mps 758 mmHg 37%
01:00 +13°C° 0 mm 0 mps 759 mmHg 38%
02:00 +13°C° 0 mm 0 mps 759 mmHg 39%
03:00 +12°C° 0 mm 0 mps 759 mmHg 39%
04:00 +12°C° 0 mm 0 mps 759 mmHg 40%
05:00 +11°C° 0 mm 0 mps 759 mmHg 41%
06:00 +11°C° 0 mm 0 mps 759 mmHg 42%
07:00 +15°C° 0 mm 1 mps 759 mmHg 38%
08:00 +18°C° 0 mm 1 mps 759 mmHg 33%
09:00 +21°C° 0 mm 1 mps 759 mmHg 28%
10:00 +23°C° 0 mm 1 mps 758 mmHg 26%
11:00 +24°C° 0 mm 2 mps 758 mmHg 23%
12:00 +26°C° 0 mm 2 mps 758 mmHg 20%
13:00 +27°C° 0 mm 1 mps 757 mmHg 18%
14:00 +28°C° 0 mm 1 mps 757 mmHg 17%
15:00 +28°C° 0 mm 1 mps 757 mmHg 16%
16:00 +26°C° 0 mm 2 mps 757 mmHg 17%
17:00 +25°C° 0 mm 2 mps 756 mmHg 19%
18:00 +23°C° 0 mm 2 mps 756 mmHg 21%
19:00 +21°C° 0 mm 2 mps 756 mmHg 23%
20:00 +19°C° 0 mm 2 mps 756 mmHg 25%
21:00 +18°C° 0 mm 2 mps 756 mmHg 28%
22:00 +17°C° 0 mm 2 mps 756 mmHg 29%
23:00 +16°C° 0 mm 2 mps 756 mmHg 31%

Tomorrow, 24 September, Thursday

Time Temperature Precipitation Wind Pressure Humidity
00:00 +15°C° 0 mm 1 mps 756 mmHg 33%
01:00 +15°C° 0 mm 1 mps 756 mmHg 34%
02:00 +15°C° 0 mm 1 mps 756 mmHg 35%
03:00 +14°C° 0 mm 1 mps 757 mmHg 37%
04:00 +14°C° 0 mm 1 mps 756 mmHg 37%
05:00 +13°C° 0 mm 1 mps 756 mmHg 38%
06:00 +13°C° 0 mm 1 mps 756 mmHg 39%
07:00 +15°C° 0 mm 2 mps 756 mmHg 35%
08:00 +18°C° 0 mm 2 mps 757 mmHg 31%
09:00 +20°C° 0 mm 3 mps 757 mmHg 27%
10:00 +22°C° 0 mm 3 mps 757 mmHg 25%
11:00 +26°C° 0 mm 3 mps 756 mmHg 23%
12:00 +28°C° 0 mm 4 mps 756 mmHg 21%
13:00 +28°C° 0 mm 3 mps 756 mmHg 21%
14:00 +29°C° 0 mm 3 mps 756 mmHg 20%
15:00 +30°C° 0 mm 3 mps 755 mmHg 20%
16:00 +28°C° 0 mm 3 mps 755 mmHg 23%
17:00 +27°C° 0 mm 3 mps 755 mmHg 26%
18:00 +25°C° 0 mm 3 mps 755 mmHg 29%
19:00 +22°C° 0 mm 3 mps 755 mmHg 33%
20:00 +21°C° 0 mm 3 mps 755 mmHg 36%
21:00 +19°C° 0 mm 3 mps 756 mmHg 39%
22:00 +18°C° 0 mm 3 mps 756 mmHg 40%
23:00 +18°C° 0 mm 3 mps 755 mmHg 41%

Day after tomorrow, 25 September, Friday

Time Temperature Precipitation Wind Pressure Humidity
00:00 +17°C° 0 mm 2 mps 755 mmHg 42%
01:00 +17°C° 0 mm 2 mps 755 mmHg 43%
02:00 +16°C° 0 mm 2 mps 755 mmHg 44%
03:00 +15°C° 0 mm 2 mps 756 mmHg 45%
04:00 +15°C° 0 mm 2 mps 756 mmHg 47%
05:00 +15°C° 0 mm 2 mps 755 mmHg 48%
06:00 +14°C° 0 mm 2 mps 755 mmHg 49%
07:00 +17°C° 0 mm 3 mps 755 mmHg 46%
08:00 +19°C° 0 mm 3 mps 756 mmHg 42%
09:00 +21°C° 0 mm 4 mps 756 mmHg 39%
10:00 +23°C° 0 mm 4 mps 755 mmHg 36%
11:00 +26°C° 0 mm 5 mps 755 mmHg 33%
12:00 +28°C° 0 mm 5 mps 755 mmHg 30%
13:00 +28°C° 0 mm 5 mps 754 mmHg 28%
14:00 +29°C° 0 mm 5 mps 754 mmHg 27%
15:00 +29°C° 0 mm 5 mps 754 mmHg 26%
16:00 +28°C° 0 mm 5 mps 754 mmHg 28%
17:00 +26°C° 0 mm 4 mps 753 mmHg 30%
18:00 +25°C° 0 mm 4 mps 753 mmHg 32%
19:00 +23°C° 0 mm 4 mps 753 mmHg 33%
20:00 +21°C° 0 mm 4 mps 754 mmHg 35%
21:00 +20°C° 0 mm 4 mps 754 mmHg 37%
22:00 +19°C° 0 mm 4 mps 754 mmHg 39%
23:00 +18°C° 0 mm 4 mps 754 mmHg 40%

26 September, Saturday

Time Temperature Precipitation Wind Pressure Humidity
00:00 +18°C° 0 mm 4 mps 753 mmHg 42%
01:00 +17°C° 0 mm 4 mps 753 mmHg 45%
02:00 +15°C° 0 mm 4 mps 753 mmHg 48%
03:00 +15°C° 0 mm 4 mps 753 mmHg 50%
04:00 +15°C° 0 mm 4 mps 753 mmHg 52%
05:00 +14°C° 0 mm 4 mps 753 mmHg 53%
06:00 +14°C° 0 mm 4 mps 753 mmHg 54%
07:00 +16°C° 0 mm 5 mps 753 mmHg 47%
08:00 +19°C° 0 mm 6 mps 753 mmHg 40%
09:00 +21°C° 0 mm 6 mps 753 mmHg 33%
10:00 +23°C° 0 mm 7 mps 753 mmHg 27%
11:00 +27°C° 0 mm 7 mps 753 mmHg 22%
12:00 +29°C° 0 mm 7 mps 753 mmHg 16%
13:00 +31°C° 0 mm 8 mps 753 mmHg 16%
14:00 +31°C° 0 mm 8 mps 753 mmHg 15%
15:00 +32°C° 0 mm 8 mps 752 mmHg 15%
16:00 +29°C° 0 mm 7 mps 752 mmHg 18%
17:00 +28°C° 0 mm 7 mps 752 mmHg 20%
18:00 +26°C° 0 mm 6 mps 752 mmHg 23%
19:00 +24°C° 0 mm 6 mps 753 mmHg 27%
20:00 +23°C° 0 mm 7 mps 753 mmHg 31%
21:00 +22°C° 0 mm 7 mps 753 mmHg 36%
22:00 +21°C° 0 mm 7 mps 753 mmHg 37%
23:00 +20°C° 0 mm 7 mps 754 mmHg 39%

27 September, Sunday

Time Temperature Precipitation Wind Pressure Humidity
00:00 +19°C° 0 mm 6 mps 754 mmHg 41%
01:00 +17°C° 0 mm 7 mps 754 mmHg 43%
02:00 +17°C° 0 mm 7 mps 754 mmHg 44%
03:00 +16°C° 0 mm 7 mps 754 mmHg 46%
04:00 +15°C° 0 mm 7 mps 754 mmHg 47%
05:00 +15°C° 0 mm 7 mps 754 mmHg 49%
06:00 +14°C° 0 mm 7 mps 754 mmHg 50%
07:00 +15°C° 0 mm 8 mps 754 mmHg 46%
08:00 +17°C° 0 mm 8 mps 754 mmHg 42%
09:00 +18°C° 0 mm 9 mps 754 mmHg 38%
10:00 +21°C° 0 mm 9 mps 754 mmHg 34%
11:00 +23°C° 0 mm 10 mps 753 mmHg 29%
12:00 +26°C° 0 mm 10 mps 753 mmHg 24%
13:00 +27°C° 0 mm 10 mps 753 mmHg 24%
14:00 +27°C° 0 mm 10 mps 752 mmHg 23%
15:00 +28°C° 0 mm 10 mps 752 mmHg 23%
16:00 +27°C° 0 mm 9 mps 752 mmHg 25%
17:00 +26°C° 0 mm 9 mps 752 mmHg 26%
18:00 +24°C° 0 mm 8 mps 752 mmHg 28%
19:00 +23°C° 0 mm 8 mps 752 mmHg 29%
20:00 +22°C° 0 mm 9 mps 752 mmHg 31%
21:00 +21°C° 0 mm 9 mps 752 mmHg 33%
22:00 +20°C° 0.5 mm 8 mps 753 mmHg 40%
23:00 +18°C° 0.5 mm 7 mps 753 mmHg 46%

28 September, Monday

Time Temperature Precipitation Wind Pressure Humidity
00:00 +17°C° 0.5 mm 6 mps 753 mmHg 53%
01:00 +16°C° 2.7 mm 6 mps 753 mmHg 60%
02:00 +15°C° 2.7 mm 6 mps 753 mmHg 67%
03:00 +15°C° 2.7 mm 6 mps 753 mmHg 73%
04:00 +15°C° 0.2 mm 6 mps 754 mmHg 74%
05:00 +15°C° 0.2 mm 6 mps 754 mmHg 75%
06:00 +15°C° 0.2 mm 5 mps 755 mmHg 75%
07:00 +16°C° 0 mm 5 mps 755 mmHg 75%
08:00 +17°C° 0 mm 4 mps 755 mmHg 74%
09:00 +18°C° 0 mm 4 mps 755 mmHg 74%
10:00 +20°C° 0 mm 3 mps 756 mmHg 67%
11:00 +23°C° 0 mm 2 mps 756 mmHg 59%
12:00 +24°C° 0 mm 1 mps 756 mmHg 52%
13:00 +25°C° 0 mm 1 mps 756 mmHg 47%
14:00 +26°C° 0 mm 1 mps 756 mmHg 42%
15:00 +26°C° 0 mm 1 mps 756 mmHg 37%
16:00 +25°C° 0 mm 1 mps 756 mmHg 41%
17:00 +24°C° 0 mm 2 mps 756 mmHg 44%
18:00 +23°C° 0 mm 2 mps 756 mmHg 47%
19:00 +21°C° 0 mm 2 mps 756 mmHg 51%
20:00 +20°C° 0 mm 3 mps 756 mmHg 56%
21:00 +19°C° 0 mm 4 mps 756 mmHg 61%
22:00 +19°C° 0 mm 4 mps 756 mmHg 61%
23:00 +18°C° 0 mm 4 mps 756 mmHg 61%
Show more